THOR ABLESTAR DEB, 246

Orbit data source: Space-Track

THOR ABLESTAR DEB, 246 is space debris in LEO originally from a launch on Thu, 29 Jun 1961 UTC launched from the Air Force Eastern Test Range (AFETR). Debris objects in space refer to the collection of defunct objects orbiting the Earth. Examples of debris include non-operational satellites, rocket bodies, and fragments generated from explosions, collisions, or faulty payload assembly.

Loading next visibility...
THOR ABLESTAR DEB details
Identifier
246, 1961-015CB
Orbit
LEO
Last TLE update1 day ago
Origin
Flag of USUSAF SSD (US)
ManufacturerUnknown
MissionSpacecraft
Bus & MotorUnknown
MassUnknown
Launch date (UTC)
1961-06-29 (64 years ago)
Launch vehicleUnknown
Launch site
Air Force Eastern Test Range (AFETR)
Object type
Payload
Rocket body
Debris
Shape & HBRUnknown
Radar Cross SectionMedium (>0.1 m² and <1 m²)

Expand to show TLE details & history

TLE from 1 day ago
0 THOR ABLESTAR DEB
1 00246U 61015CB  25035.16400567  .00000062  00000-0  11700-3 0  9999
2 00246  66.8708 314.9422 0060298 127.9869 232.6675 13.86062882554842
Epoch: 2025-02-04T03:56Z
Definitive object data (Epoch: 2025-02-04T03:56:10.089Z)
Latitude-0.00009°
Longitude121.3269°
Altitude971.477 km
Speed7.353 km/s
True Right ascension20h 59m 46s
True Declination0° 00' 00"
Sunlit
Object was in daylight at TLE epoch
Visualization TLE readout
Latitude43.19439°
Longitude-85.38335°
Altitude904.031 km
Speed7.427 km/s
Apparent Right ascension04h 38m 13s
Apparent Declination6° 33' 34"
Sunlit
Object is in full shadow
Visualization observer readout
Local Sidereal Time13:47:25
Azimuth309.536° NW
Elevation-29.122°
Doppler factor1
Orbital elements
Apogee altitude984.982 km
Perigee altitude896.718 km
Semi-major axis7,318.987 km
Eccentricity0.0060298
Inclination66.8708°
RAAN314.9422°
Arg. of periapsis127.9869°
True anomaly232.1206°
Mean anomaly232.6675°
Eccentric anomaly232.3938°
Mean motion3.4663 °/min
BSTAR0.000117
Orbital period103.86 mins
Loading maneuver chart data...

THOR ABLESTAR DEB Visibility forecast

Observer location: undefined°, undefined

Span
Click to sort rows by Start time (UTC) header in descending order
Start Az.
Max El. time (UTC)
Max El. Az.
Max El.
End time (UTC)
End Az.
10 mins2025-02-05 19:54:22.714Z204.006° SW2025-02-05 19:58:22.714Z173.087° S44.61°2025-02-05 20:04:22.714Z30.273° NE
6 mins2025-02-05 21:43:22.714Z284.258° WNW2025-02-05 21:46:22.714Z318.973° NNW18.054°2025-02-05 21:49:22.714Z352.755° N
5 mins2025-02-06 03:14:22.714Z15.303° NNE2025-02-06 03:16:22.714Z37.625° NE15.331°2025-02-06 03:19:22.714Z70.731° E
9 mins2025-02-06 05:00:22.714Z334.512° NNW2025-02-06 05:04:22.714Z67.72° E44.701°2025-02-06 05:09:22.714Z148.426° SSE
|